When you browse on this site, cookies collect data to enhance your experience and personalize the content and advertising you see.
Visit our Privacy Policy to learn more. By continuing to use the site, you agree to this use of cookies and data.
  • In Portugal
  • List of Countries
  • For 7 days
  • Water Temperature
  • Satellite Maps
  • Weather Map
  • Weather Widgets
  • user-avatar
    Login

    Hourly Weather Kitzbuhel

    Today, 22 May, Wednesday

    Time Temperature Precipitation Wind Pressure Humidity
    00:00 +8°C° 0.6 mm 1 mps 674 mmHg 96%
    01:00 +8°C° 0.6 mm 1 mps 674 mmHg 96%
    02:00 +8°C° 0.6 mm 1 mps 674 mmHg 96%
    03:00 +8°C° 0.6 mm 1 mps 675 mmHg 96%
    04:00 +7°C° 0.6 mm 1 mps 675 mmHg 97%
    05:00 +8°C° 0.7 mm 1 mps 675 mmHg 97%
    06:00 +8°C° 0.7 mm 1 mps 675 mmHg 96%
    07:00 +8°C° 0.7 mm 1 mps 675 mmHg 96%
    08:00 +8°C° 0.6 mm 1 mps 675 mmHg 96%
    09:00 +9°C° 0.6 mm 1 mps 676 mmHg 96%
    10:00 +9°C° 0.6 mm 1 mps 676 mmHg 95%
    11:00 +10°C° 0.2 mm 1 mps 676 mmHg 93%
    12:00 +11°C° 0.2 mm 1 mps 676 mmHg 91%
    13:00 +11°C° 0.2 mm 1 mps 676 mmHg 88%
    14:00 +12°C° 0.2 mm 1 mps 676 mmHg 85%
    15:00 +12°C° 0.2 mm 1 mps 676 mmHg 82%
    16:00 +13°C° 0.2 mm 2 mps 676 mmHg 79%
    17:00 +12°C° 0.3 mm 1 mps 676 mmHg 85%
    18:00 +11°C° 0.3 mm 1 mps 677 mmHg 90%
    19:00 +10°C° 0.3 mm 1 mps 677 mmHg 96%
    20:00 +10°C° 0.1 mm 1 mps 677 mmHg 96%
    21:00 +9°C° 0.1 mm 1 mps 677 mmHg 97%
    22:00 +8°C° 0.1 mm 1 mps 678 mmHg 97%
    23:00 +8°C° 0.1 mm 1 mps 678 mmHg 97%

    Tomorrow, 23 May, Thursday

    Time Temperature Precipitation Wind Pressure Humidity
    00:00 +8°C° 0.1 mm 1 mps 678 mmHg 97%
    01:00 +8°C° 0.1 mm 1 mps 678 mmHg 97%
    02:00 +7°C° 0 mm 1 mps 678 mmHg 98%
    03:00 +6°C° 0 mm 0 mps 678 mmHg 98%
    04:00 +5°C° 0 mm 0 mps 678 mmHg 98%
    05:00 +6°C° 0 mm 0 mps 678 mmHg 96%
    06:00 +7°C° 0 mm 0 mps 678 mmHg 94%
    07:00 +8°C° 0 mm 0 mps 678 mmHg 92%
    08:00 +11°C° 0 mm 1 mps 679 mmHg 81%
    09:00 +13°C° 0 mm 1 mps 679 mmHg 70%
    10:00 +15°C° 0 mm 1 mps 679 mmHg 60%
    11:00 +16°C° 0 mm 1 mps 679 mmHg 56%
    12:00 +16°C° 0 mm 1 mps 679 mmHg 51%
    13:00 +17°C° 0 mm 2 mps 679 mmHg 47%
    14:00 +17°C° 0 mm 2 mps 678 mmHg 49%
    15:00 +17°C° 0 mm 2 mps 678 mmHg 50%
    16:00 +17°C° 0 mm 2 mps 678 mmHg 51%
    17:00 +15°C° 0 mm 2 mps 678 mmHg 61%
    18:00 +13°C° 0 mm 1 mps 677 mmHg 70%
    19:00 +12°C° 0 mm 1 mps 677 mmHg 80%
    20:00 +10°C° 0 mm 1 mps 677 mmHg 85%
    21:00 +9°C° 0 mm 1 mps 677 mmHg 89%
    22:00 +7°C° 0 mm 1 mps 677 mmHg 93%
    23:00 +7°C° 0 mm 1 mps 677 mmHg 91%

    Day after tomorrow, 24 May, Friday

    Time Temperature Precipitation Wind Pressure Humidity
    00:00 +7°C° 0 mm 1 mps 677 mmHg 88%
    01:00 +7°C° 0 mm 1 mps 677 mmHg 86%
    02:00 +7°C° 0 mm 1 mps 677 mmHg 81%
    03:00 +6°C° 0 mm 1 mps 677 mmHg 77%
    04:00 +6°C° 0 mm 1 mps 677 mmHg 73%
    05:00 +9°C° 0 mm 1 mps 677 mmHg 67%
    06:00 +11°C° 0 mm 1 mps 677 mmHg 61%
    07:00 +12°C° 0 mm 0 mps 678 mmHg 55%
    08:00 +14°C° 0 mm 0 mps 678 mmHg 51%
    09:00 +16°C° 0 mm 1 mps 678 mmHg 47%
    10:00 +19°C° 0 mm 1 mps 678 mmHg 43%
    11:00 +20°C° 0 mm 1 mps 678 mmHg 42%
    12:00 +19°C° 0 mm 2 mps 678 mmHg 41%
    13:00 +20°C° 0 mm 2 mps 678 mmHg 40%
    14:00 +20°C° 0 mm 2 mps 677 mmHg 43%
    15:00 +19°C° 0 mm 2 mps 677 mmHg 46%
    16:00 +19°C° 0 mm 2 mps 676 mmHg 48%
    17:00 +17°C° 0 mm 2 mps 676 mmHg 59%
    18:00 +15°C° 0 mm 1 mps 676 mmHg 70%
    19:00 +14°C° 0 mm 1 mps 675 mmHg 80%
    20:00 +12°C° 0 mm 1 mps 675 mmHg 85%
    21:00 +11°C° 0 mm 1 mps 676 mmHg 89%
    22:00 +9°C° 0 mm 1 mps 676 mmHg 94%
    23:00 +9°C° 0 mm 1 mps 675 mmHg 94%

    25 May, Saturday

    Time Temperature Precipitation Wind Pressure Humidity
    00:00 +9°C° 0 mm 1 mps 675 mmHg 93%
    01:00 +9°C° 0 mm 1 mps 675 mmHg 93%
    02:00 +9°C° 0 mm 1 mps 675 mmHg 92%
    03:00 +9°C° 0 mm 1 mps 675 mmHg 92%
    04:00 +9°C° 0 mm 1 mps 675 mmHg 91%
    05:00 +11°C° 0 mm 1 mps 676 mmHg 84%
    06:00 +11°C° 0 mm 0 mps 676 mmHg 77%
    07:00 +13°C° 0 mm 0 mps 676 mmHg 71%
    08:00 +14°C° 0.1 mm 0 mps 677 mmHg 67%
    09:00 +18°C° 0.1 mm 1 mps 677 mmHg 63%
    10:00 +19°C° 0.1 mm 1 mps 677 mmHg 60%
    11:00 +19°C° 0.4 mm 1 mps 677 mmHg 62%
    12:00 +19°C° 0.4 mm 1 mps 677 mmHg 65%
    13:00 +19°C° 0.4 mm 1 mps 677 mmHg 68%
    14:00 +18°C° 0.8 mm 1 mps 677 mmHg 73%
    15:00 +16°C° 0.8 mm 1 mps 676 mmHg 78%
    16:00 +15°C° 0.8 mm 1 mps 676 mmHg 83%
    17:00 +14°C° 0.8 mm 1 mps 676 mmHg 87%
    18:00 +13°C° 0.8 mm 1 mps 676 mmHg 90%
    19:00 +12°C° 0.8 mm 1 mps 676 mmHg 94%
    20:00 +12°C° 0.1 mm 1 mps 676 mmHg 94%
    21:00 +11°C° 0.1 mm 1 mps 676 mmHg 94%
    22:00 +10°C° 0.1 mm 1 mps 676 mmHg 94%
    23:00 +9°C° 0 mm 1 mps 676 mmHg 94%

    26 May, Sunday

    Time Temperature Precipitation Wind Pressure Humidity
    00:00 +9°C° 0 mm 1 mps 676 mmHg 94%
    01:00 +9°C° 0 mm 1 mps 676 mmHg 94%
    02:00 +8°C° 0 mm 1 mps 676 mmHg 94%
    03:00 +8°C° 0 mm 1 mps 676 mmHg 95%
    04:00 +8°C° 0 mm 1 mps 676 mmHg 95%
    05:00 +10°C° 0 mm 1 mps 676 mmHg 93%
    06:00 +11°C° 0 mm 1 mps 677 mmHg 90%
    07:00 +13°C° 0 mm 1 mps 677 mmHg 88%
    08:00 +14°C° 0.1 mm 1 mps 677 mmHg 80%
    09:00 +16°C° 0.1 mm 1 mps 678 mmHg 71%
    10:00 +19°C° 0.1 mm 1 mps 678 mmHg 63%
    11:00 +19°C° 0.1 mm 1 mps 678 mmHg 59%
    12:00 +19°C° 0.1 mm 2 mps 678 mmHg 54%
    13:00 +20°C° 0.1 mm 2 mps 678 mmHg 50%
    14:00 +19°C° 0.1 mm 2 mps 677 mmHg 53%
    15:00 +19°C° 0.1 mm 2 mps 677 mmHg 56%
    16:00 +19°C° 0.1 mm 2 mps 677 mmHg 58%
    17:00 +17°C° 0.1 mm 2 mps 677 mmHg 68%
    18:00 +16°C° 0.1 mm 1 mps 677 mmHg 77%
    19:00 +14°C° 0.1 mm 1 mps 676 mmHg 87%
    20:00 +13°C° 0 mm 1 mps 676 mmHg 90%
    21:00 +12°C° 0 mm 1 mps 677 mmHg 93%
    22:00 +10°C° 0 mm 1 mps 677 mmHg 96%
    23:00 +10°C° 0 mm 1 mps 677 mmHg 95%

    27 May, Monday

    Time Temperature Precipitation Wind Pressure Humidity
    00:00 +10°C° 0 mm 1 mps 676 mmHg 94%
    01:00 +10°C° 0 mm 1 mps 676 mmHg 93%
    02:00 +10°C° 0 mm 1 mps 676 mmHg 92%
    03:00 +10°C° 0 mm 1 mps 676 mmHg 92%
    04:00 +10°C° 0 mm 1 mps 676 mmHg 92%
    05:00 +12°C° 0 mm 1 mps 676 mmHg 86%
    06:00 +14°C° 0 mm 1 mps 676 mmHg 80%
    07:00 +15°C° 0 mm 0 mps 677 mmHg 74%
    08:00 +18°C° 0.1 mm 1 mps 677 mmHg 70%
    09:00 +19°C° 0.1 mm 1 mps 677 mmHg 67%
    10:00 +20°C° 0.1 mm 1 mps 677 mmHg 64%
    11:00 +20°C° 0.8 mm 1 mps 676 mmHg 69%
    12:00 +20°C° 0.8 mm 1 mps 676 mmHg 74%
    13:00 +19°C° 0.8 mm 1 mps 676 mmHg 79%
    14:00 +19°C° 1.1 mm 1 mps 675 mmHg 82%
    15:00 +19°C° 1.1 mm 1 mps 675 mmHg 84%
    16:00 +18°C° 1.1 mm 1 mps 675 mmHg 87%
    17:00 +18°C° 0.8 mm 1 mps 675 mmHg 89%
    18:00 +16°C° 0.8 mm 1 mps 675 mmHg 91%
    19:00 +14°C° 0.8 mm 0 mps 675 mmHg 94%
    20:00 +14°C° 0.6 mm 0 mps 675 mmHg 94%
    21:00 +13°C° 0.6 mm 0 mps 675 mmHg 95%
    22:00 +12°C° 0.6 mm 0 mps 675 mmHg 96%
    23:00 +12°C° 0.3 mm 0 mps 674 mmHg 97%
    Show more